Time,TemperatureF,DewpointF,PressureIn,WindDirection,WindDirectionDegrees,WindSpeedMPH,WindSpeedGustMPH,Humidity,HourlyPrecipIn,Conditions,Clouds,dailyrainin,SoftwareType,DateUTC
2013-05-19 00:11:00,75.9,68.0,30.03,ENE,60,0.0,-999.0,77,-99.99,,,0.00,weatherlink.com 1.10,2013-05-19 04:11:00,
2013-05-19 00:26:00,75.6,68.0,30.03,ENE,60,0.0,-999.0,77,-99.99,,,0.00,weatherlink.com 1.10,2013-05-19 04:26:00,
2013-05-19 00:41:00,75.5,68.0,30.03,ENE,60,0.0,-999.0,78,-99.99,,,0.00,weatherlink.com 1.10,2013-05-19 04:41:00,
2013-05-19 00:56:00,75.5,68.0,30.02,ENE,60,0.0,-999.0,77,-99.99,,,0.00,weatherlink.com 1.10,2013-05-19 04:56:00,
2013-05-19 01:11:00,75.5,68.0,30.02,ENE,60,0.0,-999.0,77,-99.99,,,0.00,weatherlink.com 1.10,2013-05-19 05:11:00,
2013-05-19 01:26:00,76.3,68.0,30.01,ENE,60,1.0,-999.0,76,-99.99,,,0.00,weatherlink.com 1.10,2013-05-19 05:26:00,
2013-05-19 01:41:00,76.6,68.0,30.01,ENE,60,1.0,-999.0,75,-99.99,,,0.00,weatherlink.com 1.10,2013-05-19 05:41:00,
2013-05-19 01:56:00,76.7,68.0,30.00,ENE,60,2.0,-999.0,75,-99.99,,,0.00,weatherlink.com 1.10,2013-05-19 05:56:00,
2013-05-19 02:11:00,76.7,68.0,30.00,ENE,60,2.0,-999.0,75,-99.99,,,0.00,weatherlink.com 1.10,2013-05-19 06:11:00,
2013-05-19 02:26:00,76.7,68.0,30.00,ENE,60,4.0,-999.0,74,-99.99,,,0.00,weatherlink.com 1.10,2013-05-19 06:26:00,
2013-05-19 02:41:00,76.7,68.0,29.99,West,277,4.0,-999.0,75,-99.99,,,0.00,weatherlink.com 1.10,2013-05-19 06:41:00,
2013-05-19 02:56:00,76.8,68.0,29.99,West,278,1.0,-999.0,74,-99.99,,,0.00,weatherlink.com 1.10,2013-05-19 06:56:00,
2013-05-19 03:11:00,76.8,68.0,29.98,West,277,0.0,-999.0,74,-99.99,,,0.00,weatherlink.com 1.10,2013-05-19 07:11:00,
2013-05-19 03:26:00,76.8,68.0,29.98,West,277,4.0,-999.0,73,-99.99,,,0.00,weatherlink.com 1.10,2013-05-19 07:26:00,
2013-05-19 03:41:00,76.8,68.0,29.98,West,278,1.0,-999.0,75,-99.99,,,0.00,weatherlink.com 1.10,2013-05-19 07:41:00,
2013-05-19 03:56:00,76.2,68.0,29.98,West,278,0.0,-999.0,75,-99.99,,,0.00,weatherlink.com 1.10,2013-05-19 07:56:00,
2013-05-19 04:11:00,76.4,68.0,29.98,West,278,1.0,-999.0,76,-99.99,,,0.00,weatherlink.com 1.10,2013-05-19 08:11:00,
2013-05-19 04:26:00,76.6,69.0,29.97,West,278,0.0,-999.0,77,-99.99,,,0.00,weatherlink.com 1.10,2013-05-19 08:26:00,
2013-05-19 04:41:00,76.3,69.0,29.98,West,278,0.0,-999.0,77,-99.99,,,0.00,weatherlink.com 1.10,2013-05-19 08:41:00,
2013-05-19 04:56:00,76.0,68.0,29.98,West,278,0.0,-999.0,77,-99.99,,,0.00,weatherlink.com 1.10,2013-05-19 08:56:00,
2013-05-19 05:11:00,75.3,68.0,29.98,West,277,0.0,-999.0,78,-99.99,,,0.00,weatherlink.com 1.10,2013-05-19 09:11:00,
2013-05-19 05:26:00,75.9,69.0,29.98,West,277,0.0,-999.0,78,-99.99,,,0.00,weatherlink.com 1.10,2013-05-19 09:26:00,
2013-05-19 05:41:00,75.9,69.0,29.98,West,278,0.0,-999.0,78,-99.99,,,0.00,weatherlink.com 1.10,2013-05-19 09:41:00,
2013-05-19 05:56:00,76.0,69.0,29.99,West,278,0.0,-999.0,78,-99.99,,,0.00,weatherlink.com 1.10,2013-05-19 09:56:00,
2013-05-19 06:11:00,75.2,68.0,29.99,West,277,0.0,-999.0,78,-99.99,,,0.00,weatherlink.com 1.10,2013-05-19 10:11:00,
2013-05-19 06:26:00,74.5,68.0,29.99,West,278,1.0,-999.0,79,-99.99,,,0.00,weatherlink.com 1.10,2013-05-19 10:26:00,
2013-05-19 06:41:00,73.6,67.0,30.00,West,278,0.0,-999.0,80,-99.99,,,0.00,weatherlink.com 1.10,2013-05-19 10:41:00,
2013-05-19 06:56:00,73.3,67.0,30.00,West,277,1.0,-999.0,80,-99.99,,,0.00,weatherlink.com 1.10,2013-05-19 10:56:00,
2013-05-19 07:11:00,73.0,67.0,30.01,West,277,1.0,-999.0,81,-99.99,,,0.00,weatherlink.com 1.10,2013-05-19 11:11:00,
2013-05-19 07:26:00,72.8,67.0,30.01,West,277,0.0,-999.0,81,-99.99,,,0.00,weatherlink.com 1.10,2013-05-19 11:26:00,
2013-05-19 07:41:00,73.0,67.0,30.02,West,277,0.0,-999.0,81,-99.99,,,0.00,weatherlink.com 1.10,2013-05-19 11:41:00,
2013-05-19 07:56:00,73.7,68.0,30.02,SSE,154,1.0,-999.0,81,-99.99,,,0.00,weatherlink.com 1.10,2013-05-19 11:56:00,
2013-05-19 08:11:00,74.6,68.0,30.03,SSE,155,0.0,-999.0,81,-99.99,,,0.00,weatherlink.com 1.10,2013-05-19 12:11:00,
2013-05-19 08:26:00,75.5,69.0,30.04,SSE,158,4.0,-999.0,79,-99.99,,,0.00,weatherlink.com 1.10,2013-05-19 12:26:00,
2013-05-19 08:41:00,76.1,69.0,30.04,SSE,158,0.0,-999.0,79,-99.99,,,0.00,weatherlink.com 1.10,2013-05-19 12:41:00,
2013-05-19 08:56:00,77.1,70.0,30.04,SSE,158,2.0,-999.0,78,-99.99,,,0.00,weatherlink.com 1.10,2013-05-19 12:56:00,
2013-05-19 09:11:00,76.9,70.0,30.04,SSE,158,0.0,-999.0,78,-99.99,,,0.00,weatherlink.com 1.10,2013-05-19 13:11:00,
2013-05-19 09:26:00,77.4,70.0,30.04,SSE,158,1.0,-999.0,77,-99.99,,,0.00,weatherlink.com 1.10,2013-05-19 13:26:00,
2013-05-19 09:42:00,77.3,70.0,30.05,SSE,161,6.0,-999.0,78,-99.99,,,0.00,weatherlink.com 1.10,2013-05-19 13:42:00,
2013-05-19 09:57:00,77.3,70.0,30.05,SW,219,3.0,-999.0,78,-99.99,,,0.00,weatherlink.com 1.10,2013-05-19 13:57:00,
2013-05-19 10:12:00,77.4,69.0,30.05,SW,219,3.0,-999.0,76,-99.99,,,0.00,weatherlink.com 1.10,2013-05-19 14:12:00,
2013-05-19 10:27:00,78.2,69.0,30.05,SW,219,4.0,-999.0,74,-99.99,,,0.00,weatherlink.com 1.10,2013-05-19 14:27:00,
2013-05-19 10:42:00,78.6,70.0,30.05,SW,219,1.0,-999.0,74,-99.99,,,0.00,weatherlink.com 1.10,2013-05-19 14:42:00,
2013-05-19 10:57:00,79.1,69.0,30.05,SW,219,3.0,-999.0,72,-99.99,,,0.00,weatherlink.com 1.10,2013-05-19 14:57:00,
2013-05-19 11:12:00,79.0,70.0,30.05,SW,224,3.0,-999.0,73,-99.99,,,0.00,weatherlink.com 1.10,2013-05-19 15:12:00,
2013-05-19 11:27:00,78.9,70.0,30.05,WSW,242,4.0,-999.0,73,-99.99,,,0.00,weatherlink.com 1.10,2013-05-19 15:27:00,
2013-05-19 11:42:00,79.1,69.0,30.05,WSW,241,6.0,-999.0,72,-99.99,,,0.00,weatherlink.com 1.10,2013-05-19 15:42:00,
2013-05-19 11:57:00,79.0,69.0,30.05,WSW,249,7.0,-999.0,72,-99.99,,,0.00,weatherlink.com 1.10,2013-05-19 15:57:00,
2013-05-19 12:12:00,79.1,69.0,30.05,West,259,5.0,-999.0,71,-99.99,,,0.00,weatherlink.com 1.10,2013-05-19 16:12:00,
2013-05-19 12:27:00,78.7,69.0,30.04,WSW,242,6.0,-999.0,73,-99.99,,,0.00,weatherlink.com 1.10,2013-05-19 16:27:00,
2013-05-19 12:42:00,78.7,70.0,30.04,WSW,246,8.0,-999.0,75,-99.99,,,0.00,weatherlink.com 1.10,2013-05-19 16:42:00,
2013-05-19 12:57:00,78.5,69.0,30.03,WSW,246,6.0,-999.0,73,-99.99,,,0.00,weatherlink.com 1.10,2013-05-19 16:57:00,
2013-05-19 13:12:00,78.8,69.0,30.03,WSW,240,6.0,-999.0,72,-99.99,,,0.00,weatherlink.com 1.10,2013-05-19 17:12:00,
2013-05-19 13:27:00,78.7,69.0,30.02,WSW,252,7.0,-999.0,73,-99.99,,,0.00,weatherlink.com 1.10,2013-05-19 17:27:00,
2013-05-19 13:42:00,78.8,69.0,30.01,West,259,9.0,-999.0,71,-99.99,,,0.00,weatherlink.com 1.10,2013-05-19 17:42:00,
2013-05-19 13:57:00,79.2,69.0,30.01,WSW,249,6.0,-999.0,70,-99.99,,,0.00,weatherlink.com 1.10,2013-05-19 17:57:00,
2013-05-19 14:12:00,79.1,69.0,30.00,WSW,254,7.0,-999.0,71,-99.99,,,0.00,weatherlink.com 1.10,2013-05-19 18:12:00,
2013-05-19 14:27:00,79.1,69.0,30.00,WSW,242,7.0,-999.0,72,-99.99,,,0.00,weatherlink.com 1.10,2013-05-19 18:27:00,
2013-05-19 14:42:00,79.3,69.0,29.99,WSW,245,8.0,-999.0,71,-99.99,,,0.00,weatherlink.com 1.10,2013-05-19 18:42:00,
2013-05-19 14:57:00,79.1,71.0,29.98,WSW,251,7.0,-999.0,75,-99.99,,,0.00,weatherlink.com 1.10,2013-05-19 18:57:00,
2013-05-19 15:12:00,79.3,71.0,29.98,WSW,257,8.0,-999.0,76,-99.99,,,0.00,weatherlink.com 1.10,2013-05-19 19:12:00,
2013-05-19 15:27:00,79.2,71.0,29.98,West,271,6.0,-999.0,76,-99.99,,,0.00,weatherlink.com 1.10,2013-05-19 19:27:00,
2013-05-19 15:42:00,79.1,71.0,29.97,WNW,288,10.0,-999.0,75,-99.99,,,0.00,weatherlink.com 1.10,2013-05-19 19:42:00,
2013-05-19 15:57:00,79.3,71.0,29.97,West,271,9.0,-999.0,76,-99.99,,,0.00,weatherlink.com 1.10,2013-05-19 19:57:00,
2013-05-19 16:12:00,79.1,71.0,29.97,West,267,4.0,-999.0,76,-99.99,,,0.00,weatherlink.com 1.10,2013-05-19 20:12:00,
2013-05-19 16:27:00,79.2,71.0,29.96,NW,313,6.0,-999.0,77,-99.99,,,0.00,weatherlink.com 1.10,2013-05-19 20:27:00,
2013-05-19 16:42:00,79.2,71.0,29.95,WNW,292,5.0,-999.0,75,-99.99,,,0.00,weatherlink.com 1.10,2013-05-19 20:42:00,
2013-05-19 16:57:00,79.4,71.0,29.95,WNW,288,5.0,-999.0,75,-99.99,,,0.00,weatherlink.com 1.10,2013-05-19 20:57:00,
2013-05-19 17:12:00,79.1,71.0,29.95,WNW,288,7.0,-999.0,75,-99.99,,,0.00,weatherlink.com 1.10,2013-05-19 21:12:00,
2013-05-19 17:27:00,79.0,70.0,29.95,WNW,300,7.0,-999.0,74,-99.99,,,0.00,weatherlink.com 1.10,2013-05-19 21:27:00,
2013-05-19 17:42:00,79.1,70.0,29.94,WNW,290,8.0,-999.0,74,-99.99,,,0.00,weatherlink.com 1.10,2013-05-19 21:42:00,
2013-05-19 17:57:00,79.0,70.0,29.94,WNW,300,6.0,-999.0,75,-99.99,,,0.00,weatherlink.com 1.10,2013-05-19 21:57:00,
2013-05-19 18:12:00,79.0,70.0,29.95,NW,314,7.0,-999.0,75,-99.99,,,0.00,weatherlink.com 1.10,2013-05-19 22:12:00,
2013-05-19 18:27:00,79.3,70.0,29.95,NW,325,11.0,-999.0,74,-99.99,,,0.00,weatherlink.com 1.10,2013-05-19 22:27:00,
2013-05-19 18:42:00,79.3,70.0,29.96,NW,313,9.0,-999.0,73,-99.99,,,0.00,weatherlink.com 1.10,2013-05-19 22:42:00,
2013-05-19 18:57:00,79.3,70.0,29.96,NW,323,11.0,-999.0,72,-99.99,,,0.00,weatherlink.com 1.10,2013-05-19 22:57:00,
2013-05-19 19:12:00,79.3,70.0,29.96,NNW,332,9.0,-999.0,72,-99.99,,,0.00,weatherlink.com 1.10,2013-05-19 23:12:00,
2013-05-19 19:27:00,79.5,70.0,29.97,NW,315,8.0,-999.0,72,-99.99,,,0.00,weatherlink.com 1.10,2013-05-19 23:27:00,
2013-05-19 19:42:00,79.4,69.0,29.97,NNW,331,7.0,-999.0,71,-99.99,,,0.00,weatherlink.com 1.10,2013-05-19 23:42:00,
2013-05-19 19:57:00,79.4,70.0,29.97,NW,325,7.0,-999.0,74,-99.99,,,0.00,weatherlink.com 1.10,2013-05-19 23:57:00,
2013-05-19 20:12:00,79.2,70.0,29.98,NNW,337,2.0,-999.0,73,-99.99,,,0.00,weatherlink.com 1.10,2013-05-20 00:12:00,
2013-05-19 20:27:00,79.3,70.0,29.98,NNW,338,1.0,-999.0,74,-99.99,,,0.00,weatherlink.com 1.10,2013-05-20 00:27:00,
2013-05-19 20:42:00,79.2,70.0,29.98,NNW,332,2.0,-999.0,74,-99.99,,,0.00,weatherlink.com 1.10,2013-05-20 00:42:00,
2013-05-19 20:57:00,79.1,70.0,29.98,NW,326,1.0,-999.0,74,-99.99,,,0.00,weatherlink.com 1.10,2013-05-20 00:57:00,
2013-05-19 21:12:00,79.0,70.0,29.98,NW,326,0.0,-999.0,74,-99.99,,,0.00,weatherlink.com 1.10,2013-05-20 01:12:00,
2013-05-19 21:27:00,78.9,70.0,29.98,NNW,327,0.0,-999.0,75,-99.99,,,0.00,weatherlink.com 1.10,2013-05-20 01:27:00,
2013-05-19 21:42:00,79.0,70.0,29.99,NNW,329,2.0,-999.0,75,-99.99,,,0.00,weatherlink.com 1.10,2013-05-20 01:42:00,
2013-05-19 21:57:00,79.0,71.0,30.00,NNW,329,2.0,-999.0,76,-99.99,,,0.00,weatherlink.com 1.10,2013-05-20 01:57:00,
2013-05-19 22:12:00,79.2,70.0,30.00,NNW,344,5.0,-999.0,74,-99.99,,,0.00,weatherlink.com 1.10,2013-05-20 02:12:00,
2013-05-19 22:27:00,79.4,70.0,30.01,NNE,26,1.0,-999.0,74,-99.99,,,0.00,weatherlink.com 1.10,2013-05-20 02:27:00,
2013-05-19 22:42:00,79.3,70.0,30.02,NE,46,1.0,-999.0,73,-99.99,,,0.00,weatherlink.com 1.10,2013-05-20 02:42:00,
2013-05-19 22:57:00,78.8,69.0,30.02,NE,52,2.0,-999.0,73,-99.99,,,0.00,weatherlink.com 1.10,2013-05-20 02:57:00,
2013-05-19 23:12:00,78.0,69.0,30.03,ENE,60,1.0,-999.0,74,-99.99,,,0.00,weatherlink.com 1.10,2013-05-20 03:12:00,
2013-05-19 23:27:00,77.3,69.0,30.03,ENE,65,0.0,-999.0,75,-99.99,,,0.00,weatherlink.com 1.10,2013-05-20 03:27:00,
2013-05-19 23:42:00,76.9,69.0,30.03,ENE,65,0.0,-999.0,76,-99.99,,,0.00,weatherlink.com 1.10,2013-05-20 03:42:00,
2013-05-19 23:57:00,76.7,69.0,30.02,ENE,65,1.0,-999.0,77,-99.99,,,0.00,weatherlink.com 1.10,2013-05-20 03:57:00,